Location: Noordwijk
(52.2400°N, 4.4500°E)
Time: 08:58:50
(UTC+00:00)

METEOR M2 - Visible Passes

Search period start: 27 November 2022 00:00
Search period end: 07 December 2022 00:00
Orbit: 819 x 826 km, 98.4° (Epoch: 26 November)

Date Brightness Start Highest point End Pass type
(mag) Time Alt. Az. Time Alt. Az. Time Alt. Az.
27 Nov ? 05:49:12 10° NNE 05:54:11 37° E 05:59:06 10° SSE visible
27 Nov ? 17:17:20 10° SSE 17:22:44 87° WSW 17:28:10 10° NNW visible
27 Nov ? 19:00:29 10° WSW 19:03:43 16° W 19:06:59 10° NW visible
28 Nov ? 05:29:32 10° NE 05:34:02 26° E 05:38:29 10° SSE visible
28 Nov ? 16:57:27 10° SSE 17:02:48 69° ENE 17:08:10 10° N visible
28 Nov ? 18:39:18 10° SW 18:43:29 22° W 18:47:40 10° NW visible
29 Nov ? 05:10:05 10° NE 05:13:49 19° E 05:17:33 10° SE visible
29 Nov ? 16:37:44 10° SE 16:42:54 50° ENE 16:48:06 10° N visible
29 Nov ? 18:18:33 10° SSW 18:23:18 31° W 18:28:06 10° NNW visible
30 Nov ? 04:51:04 10° NE 04:53:33 13° E 04:56:01 10° ESE visible
30 Nov ? 06:29:18 10° NNE 06:34:42 74° ESE 06:40:03 10° S visible
30 Nov ? 16:18:11 10° SE 16:23:05 37° ENE 16:27:59 10° N visible
30 Nov ? 17:58:04 10° S 18:03:12 44° W 18:08:21 10° NNW visible
01 Dec ? 06:09:23 10° NNE 06:14:40 52° E 06:19:53 10° S visible
01 Dec ? 17:37:48 10° S 17:43:08 61° WSW 17:48:30 10° NNW visible
01 Dec ? 19:23:16 10° W 19:24:26 11° W 19:25:36 10° WNW visible
02 Dec ? 05:49:35 10° NNE 05:54:35 37° E 05:59:32 10° SSE visible
02 Dec ? 17:17:44 10° SSE 17:23:08 85° WSW 17:28:34 10° NNW visible
02 Dec ? 19:00:57 10° WSW 19:04:07 16° W 19:07:19 10° NW visible
03 Dec ? 05:29:55 10° NE 05:34:26 27° E 05:38:55 10° SSE visible
03 Dec ? 16:57:50 10° SSE 17:03:11 70° ENE 17:08:34 10° NNW visible
03 Dec ? 18:39:45 10° SW 18:43:53 22° W 18:48:02 10° NW visible
04 Dec ? 05:10:26 10° NE 05:14:13 19° E 05:18:00 10° SE visible
04 Dec ? 06:49:39 10° NNE 06:55:03 80° WNW 07:00:25 10° SSW visible
04 Dec ? 16:38:06 10° SE 16:43:17 51° ENE 16:48:29 10° N visible
04 Dec ? 18:18:58 10° SSW 18:23:42 31° W 18:28:27 10° NNW visible
05 Dec ? 04:51:24 10° NE 04:53:57 13° E 04:56:30 10° ESE visible
05 Dec ? 06:29:41 10° NNE 06:35:05 75° ESE 06:40:26 10° S visible
05 Dec ? 16:18:33 10° SE 16:23:28 37° ENE 16:28:22 10° N visible
05 Dec ? 17:58:29 10° S 18:03:35 43° W 18:08:43 10° NNW visible
06 Dec ? 06:09:47 10° NNE 06:15:03 53° E 06:20:17 10° S visible
06 Dec ? 17:38:13 10° S 17:43:32 60° W 17:48:53 10° NNW visible
06 Dec ? 19:23:56 10° W 19:24:50 10° W 19:25:45 10° WNW visible
